{"data":{"norad_id":68416,"epoch":"2026-05-24T20:13:47.785152Z","epoch_age_seconds":88898,"freshness":"FRESH","line1":"1 68416U 26067A   26144.84291418  .00006323  00000+0  30419-3 0  9993","line2":"2 68416  97.4529 103.7213 0002844  41.2033 318.9416 15.19133960  8403","mean_motion":15.1913396,"eccentricity":0.0002844,"inclination_deg":97.4529,"raan_deg":103.7213,"arg_perigee_deg":41.2033,"mean_anomaly_deg":318.9416,"bstar":0.00030419,"rev_number":840,"period_min":94.790850439549,"perigee_km":506.49813320336,"apogee_km":510.4152276888,"semimajor_km":6886.5936804461,"source":"CELESTRAK","updated_at":"2026-05-25T13:38:07.810211Z"}}